Orangeburg, SC

9:33 PM EST on November 19, 2017 (GMT -0500)
Orangeburg Municipal

Weather History for KOGB - August, 2013

Change the Weather History Date:

Tuesday, August 27, 2013

  Actual Average Record
Temperature  
Mean Temperature 75 °F 79 °F  
Max Temperature 87 °F 88 °F 101 °F (1954)
Min Temperature 63 °F 69 °F 58 °F (1980)
Degree Days  
Heating Degree Days 0 0  
Month to date heating degree days 0 0  
Since 1 June heating degree days 0 1  
Since 1 July heating degree days 0 0  
Cooling Degree Days 10 14  
Month to date cooling degree days 369 418  
Year to date cooling degree days 1531 1640  
Since 1 June cooling degree days 1269 1337  
Growing Degree Days 25 (Base 50)    
Moisture  
Dew Point 65 °F    
Average Humidity 73    
Maximum Humidity 93    
Minimum Humidity 48    
Precipitation  
Precipitation 0.00 in 0.16 in 1.64 in (1979)
Month to date precipitation 9.57 4.65  
Year to date precipitation 47.31 32.68  
Sea Level Pressure  
Sea Level Pressure 30.07 in    
Wind  
Wind Speed 2 mph (SW)    
Max Wind Speed 8 mph    
Max Gust Speed 12 mph    
Visibility 10 miles    
Events      
T = Trace of Precipitation, MM = Missing Value Source: NWS Daily Summary

Daily Weather History Graph

Daily Weather History Graph

Search for Another Location

Airport or City:

Trip Planner

Search our weather history database for the weather conditions in past years. The results will help you decide how hot, cold, wet, or windy it might be!

Date:

Astronomy

Aug. 27, 2013 Rise Set
Actual Time 6:54 AM EDT 7:54 PM EDT
Civil Twilight 6:28 AM EDT 8:20 PM EDT
Nautical Twilight 5:58 AM EDT 8:50 PM EDT
Astronomical Twilight 5:27 AM EDT 9:21 PM EDT
Moon No Moon Rise 1:29 PM EDT (8/27)
Length of Visible Light 13h 51m
Length of Day
13h 00m
Waning Gibbous, 57% of the Moon is Illuminated
Aug 27
Waning Gibbous
Aug 28
Last Quarter
Sep 5
New
Sep 12
First Quarter
Sep 19
Full

Hourly Weather History & Observations

Time (EDT) Temp. Heat Index Dew Point Humidity Pressure Visibility Wind Dir Wind Speed Gust Speed Precip Events Conditions
12:53 AM 66.0 °F - 64.0 °F 93% 30.16 in 10.0 mi Calm Calm - N/A   Clear
1:53 AM 64.9 °F - 63.0 °F 93% 30.15 in 3.0 mi Calm Calm - N/A   Clear
2:53 AM 64.9 °F - 63.0 °F 93% 30.13 in 7.0 mi Calm Calm - 0.00 in   Clear
3:53 AM 64.9 °F - 63.0 °F 93% 30.12 in 10.0 mi Calm Calm - N/A   Partly Cloudy
4:53 AM 66.0 °F - 63.0 °F 90% 30.11 in 10.0 mi Calm Calm - N/A   Clear
5:53 AM 64.0 °F - 62.1 °F 93% 30.11 in 10.0 mi Calm Calm - N/A   Clear
6:53 AM 64.0 °F - 62.1 °F 93% 30.12 in 10.0 mi Calm Calm - N/A   Clear
7:53 AM 64.9 °F - 62.1 °F 90% 30.12 in 10.0 mi WNW 3.5 mph - N/A   Clear
8:53 AM 69.1 °F - 63.0 °F 81% 30.12 in 10.0 mi NW 4.6 mph - N/A   Clear
10:53 AM 80.1 °F 81.1 °F 61.0 °F 52% 30.11 in 10.0 mi Variable 4.6 mph - N/A   Clear
11:53 AM 82.9 °F 84.0 °F 63.0 °F 51% 30.09 in 10.0 mi Calm Calm - N/A   Clear
12:53 PM 84.9 °F 86.1 °F 64.0 °F 49% 30.08 in 10.0 mi Variable 4.6 mph - N/A   Clear
1:53 PM 84.9 °F 86.1 °F 64.0 °F 49% 30.07 in 10.0 mi Calm Calm - N/A   Clear
2:53 PM 84.0 °F 85.4 °F 64.0 °F 51% 30.05 in 10.0 mi Calm Calm - N/A   Partly Cloudy
3:53 PM 86.0 °F 87.6 °F 64.9 °F 49% 30.02 in 10.0 mi WSW 5.8 mph - N/A   Scattered Clouds
4:53 PM 86.0 °F 87.3 °F 64.0 °F 48% 30.02 in 10.0 mi WSW 4.6 mph - N/A   Partly Cloudy
5:53 PM 84.9 °F 86.6 °F 64.9 °F 51% 30.01 in 10.0 mi SW 6.9 mph - N/A   Clear
6:53 PM 82.0 °F 84.9 °F 68.0 °F 62% 30.01 in 10.0 mi South 4.6 mph - N/A   Clear
7:53 PM 78.1 °F - 69.1 °F 74% 30.02 in 10.0 mi Calm Calm - N/A   Clear
8:10 PM 77.0 °F - 69.8 °F 78% 30.03 in 10.0 mi SSW 3.5 mph - N/A   Partly Cloudy
8:53 PM 75.9 °F - 69.1 °F 79% 30.02 in 10.0 mi South 3.5 mph - N/A   Clear
9:53 PM 73.9 °F - 69.1 °F 85% 30.03 in 10.0 mi Calm Calm - N/A   Clear
10:53 PM 73.9 °F - 68.0 °F 82% 30.04 in 10.0 mi Calm Calm - N/A   Clear
11:53 PM 73.0 °F - 68.0 °F 84% 30.04 in 10.0 mi Calm Calm - N/A   Clear